Regional Weather Roundup
Issued by NWS Charleston, WV

Home | Current Version | Previous Version | Text Only | Print | Product List | Glossary On
Versions: 1 2 3 4 5 6 7 8 9 10 11 12 13 14 15 16 17 18 19 20 21 22 23 24 25 26 27 28 29 30 31 32 33 34 35 36 37 38 39 40 41 42 43 44 45 46 47 48 49 50
757
ASUS41 KRLX 201910
RWRRLX
West Virginia Regional Weather Roundup
National Weather Service Charleston WV
200 PM EST FRI JAN 20 2017

Note: "fair" indicates few or no clouds below 12,000 feet with no
significant weather and/or obstructions to visibility.

WVZ003-202000-
Northern Panhandle of West Virginia

CITY           SKY/WX    TMP DP  RH WIND       PRES   REMARKS
WHEELING       CLOUDY    54  50  86 SW9       29.71S
$$

WVZ009-202000-
Northwest West Virginia

CITY           SKY/WX    TMP DP  RH WIND       PRES   REMARKS
PARKERSBURG    PTSUNNY   60  52  74 SW9       29.75F
$$

WVZ006-202000-
Western West Virginia

CITY           SKY/WX    TMP DP  RH WIND       PRES   REMARKS
HUNTINGTON     CLOUDY    64  52  64 S9        29.73F
$$

WVZ015-202000-
West Central West Virginia

CITY           SKY/WX    TMP DP  RH WIND       PRES   REMARKS
CHARLESTON     PTSUNNY   63  50  62 VRB5      29.74F
$$

WVZ022-031-202000-
North Central West Virginia

CITY           SKY/WX    TMP DP  RH WIND       PRES   REMARKS
CLARKSBURG     CLOUDY    57  52  83 SW6       29.75F
MORGANTOWN     CLOUDY    55  51  86 S8        29.75F
$$

WVZ025-035-042-045-202000-
Southern West Virginia

CITY           SKY/WX    TMP DP  RH WIND       PRES   REMARKS
BECKLEY        PTSUNNY   60  47  61 W13       29.78F
LOGAN            N/A     63  52  67 VRB7      29.76F
BLUEFIELD      PTSUNNY   56  46  69 W9        29.81F
LEWISBURG      PTSUNNY   53  47  78 CALM      29.80F
$$

WVZ047-202000-
Northern Mountains of West Virginia

CITY           SKY/WX    TMP DP  RH WIND       PRES   REMARKS
ELKINS         CLOUDY    57  46  66 VRB6      29.77F
$$

WVZ052-202000-
Eastern Panhandle of West Virginia

CITY           SKY/WX    TMP DP  RH WIND       PRES   REMARKS
MARTINSBURG    NOT AVBL
PETERSBURG     CLOUDY    52  47  82 CALM      29.77F
$$




USA.gov is the U.S. government's official web portal to all federal, state and local government web resources and services.